Probability
0 0 0 0 0 0 0 0 0 0 0 0 0 0 0 0 0 0 0 0 0 0 0 0 0 0 0 0 0 0 0 0 0 0 0 0 0 1 1 1 0 0 0 0 0 0 0 0 0
0 0 0 0 0 0 0 0 0 0 0 0 0 0 0 0 0 0 0 0 0 0 0 0 0 0 0 0 0 0 0 0 0 0 0 0 0 0 0 0 0 0 0 0 0 0 0 0 0
0 0 0 0 0 0 0 0 0 0 0 0 0 0 0 0 0 0 0 0 0 0 0 0 0 0 0 0 0 0 0 0 0 0 0 0 0 0 0 0 0 0 0 0 0 0 0 0 0
0 0 0 0 0 0 0 0 0 0 0 0 0 0 0 0 0 0 0 0 0 0 0 0 0 0 0 0 0 0 0 0 0 0 0 0 0 0 0 0 0 0 0 0 0 0 0 0 0
0 0 0 0 0 0 0 0 0 0 0 0 0 0 0 0 0 0 0 0 0 0 0 0 0 0 0 0 0 0 0 0 0 0 0 0 0 0 0 0 0 0 0 0 0 0 0 0 0
0 0 0 0 0 0 0 0 0 0 0 0 0 0 0 0 0 0 0 0 0 0 0 0 0 0 0 0 0 0 0 0 0 0 0 0 0 0 0 0 0 0 0 0 0 0 0 0 0
0 0 0 0 0 0 0 0 0 0 0 0 0 0 0 0 0 0 0 0 0 0 0 0 0 0 0 0 0 0 0 0 0 0 0 0 0 0 0 0 0 0 0 0 0 0 0 0 0
0 0 0 0 0 0 0 0 0 0 0 0 0 0 0 0 0 0 0 0 0 0 0 0 0 0 0 0 0 0 0 0 0 0 0 0 0 0 0 0 0 0 0 0 0 0 0 0 0
0 0 0 0 0 0 0 0 0 0 0 0 0 0 0 0 0 0 0 0 0 0 0 0 0 0 0 0 0 0 0 0 0 0 0 0 0 0 0 0 0 0 0 0 0 0 0 0 0
0 0 0 0 0 0 0 0 0 0 0 0 0 0 0 0 0 0 0 0 0 0 0 0 0 0 0 0 0 0 0 0 0 0 0 0 0 0 0 0 0 0 0 0 0 0 0 0 0
0 0 0 0 0 0 0 0 0 0 0 0 0 0 0 0 0 0 0 0 0 0 0 0 0 0 0 0 0 0 0 0 0 0 0 0 0 0 0 0 0 0 0 0 0 0 0 0 0
1 0 0 0 0 0 0 0 0 0 0 0 0 0 0 0 0 0 0 0 0 0 0 0 0 0 0 0 0 0 0 0 0 0 0 0 0 0 0 0 0 0 0 0 0 0 0 0 0
1 0 0 0 0 0 0 0 0 0 0 0 0 0 0 0 0 0 0 0 0 0 0 0 0 0 0 0 0 0 0 0 0 0 0 0 0 0 0 0 0 0 0 0 0 0 0 0 0
1 0 0 0 0 0 0 0 0 0 0 0 0 0 0 0 0 0 0 0 0 0 0 0 0 0 0 0 0 0 0 0 0 0 0 0 0 0 0 0 0 0 0 0 0 0 0 0 0
0 0 0 0 0 0 0 0 0 0 0 0 0 0 0 0 0 0 0 0 0 0 0 0 0 0 0 0 0 0 0 0 0 0 0 0 0 0 0 0 0 0 0 0 0 0 0 0 0
0 0 0 0 0 0 0 0 0 0 0 0 0 0 0 0 0 0 0 0 0 0 0 0 0 0 0 0 0 0 0 0 0 0 0 0 0 0 0 0 0 0 0 0 0 0 0 0 0
0 0 0 0 0 0 0 0 0 0 0 0 0 0 0 0 0 0 0 0 0 0 0 0 0 0 0 0 0 0 0 0 0 0 0 0 0 0 0 0 0 0 0 0 0 0 0 0 0
0 0 0 0 0 0 0 0 0 0 0 0 0 0 0 0 0 0 0 0 0 0 0 0 0 0 0 0 0 0 0 0 0 0 0 0 0 0 0 0 0 0 0 0 0 0 0 0 0
0 0 0 0 0 0 0 0 0 0 0 0 0 0 0 0 0 0 0 0 0 0 0 0 0 0 0 0 0 0 0 0 0 0 0 0 0 0 0 0 0 0 0 0 0 0 0 0 0
0 0 0 0 0 0 0 0 0 0 0 0 0 0 0 0 0 0 0 0 0 0 0 0 0 0 0 0 0 0 0 0 0 0 0 0 0 0 0 0 0 0 0 0 0 0 0 0 0
0 0 0 0 0 0 0 0 0 0 0 0 0 0 0 0 0 0 0 0 0 0 0 0 0 0 0 0 0 0 0 0 0 0 0 0 0 0 0 0 0 0 0 0 0 0 0 0 0
0 0 0 0 0 0 0 0 0 0 0 0 0 0 0 0 0 0 0 0 0 0 0 0 1 1 1 0 0 0 0 0 0 0 0 0 0 0 0 0 0 0 0 0 0 0 0 0 0
0 0 0 0 0 0 0 0 0 0 0 0 0 0 0 0 0 0 0 0 0 0 0 1 2 2 2 1 0 0 0 0 0 0 0 0 0 0 0 0 0 0 0 0 0 0 0 0 0
0 0 0 0 0 0 0 0 0 0 0 0 0 0 0 0 0 0 0 0 0 0 0 1 2 3 3 2 1 0 0 0 0 0 0 0 0 0 0 0 0 0 0 0 0 0 0 0 0
0 0 0 0 0 0 0 0 0 0 0 0 0 0 0 0 0 0 0 0 0 0 0 1 2 3 3 3 2 1 0 0 0 0 0 0 0 0 0 0 0 0 0 0 0 0 0 0 0
0 0 0 0 0 0 0 0 0 0 0 0 0 0 0 0 0 0 0 0 0 0 0 0 1 3 3 3 3 2 1 0 0 0 0 0 0 0 0 0 0 0 0 0 0 0 0 0 0
0 0 0 0 0 0 0 0 0 0 0 0 0 0 0 0 0 0 0 0 0 0 0 0 1 2 3 3 3 2 1 0 0 0 0 0 0 0 0 0 0 0 0 0 0 0 0 0 0
0 0 0 0 0 0 0 0 0 0 0 0 0 0 0 0 0 0 0 0 0 0 0 0 1 2 3 3 3 2 1 0 0 0 0 0 0 0 0 0 0 0 0 0 0 0 0 0 0
0 0 0 0 0 0 0 0 0 0 0 0 0 0 0 0 0 0 0 0 0 0 0 0 0 1 3 3 3 2 1 0 0 0 0 0 0 0 0 0 0 0 0 0 0 0 0 0 0
0 0 0 0 0 0 0 0 0 0 0 0 0 0 0 0 0 0 0 0 0 0 0 0 0 1 2 3 3 2 1 0 0 0 0 0 0 0 0 0 0 0 0 0 0 0 0 0 0
Wind_Speed
4 2 3 3 5 5 3 2 2 3 4 3 5 7 7 5 3 4 0 2 4 3 3 5 10 11 11 11 11 11 11 11 11 11 11 11 10 10 10 9 9 9 9 8 8 8 8 8 7
1 1 4 5 5 4 2 2 4 3 6 6 6 6 7 5 4 4 1 3 5 4 3 5 10 11 11 11 11 11 11 10 11 11 11 10 10 10 9 9 9 9 9 8 8 8 8 8 7
1 3 4 4 4 3 3 2 5 5 5 3 5 5 5 4 2 2 2 5 5 4 4 5 10 10 10 10 11 11 11 10 10 10 10 10 9 9 9 8 8 8 8 8 8 8 8 8 7
3 4 5 6 5 1 3 4 6 6 5 5 5 6 4 3 2 3 5 6 6 4 3 4 10 10 10 10 10 10 10 10 9 9 9 9 9 9 8 8 7 7 7 7 7 8 8 8 7
4 4 5 4 3 3 3 2 2 4 4 4 5 6 4 3 5 7 6 6 5 4 3 4 9 10 10 10 9 9 9 9 9 8 8 8 8 8 8 7 7 7 7 7 7 8 8 8 8
4 5 5 3 3 2 2 2 3 6 6 5 6 5 3 2 5 5 5 5 4 4 3 4 7 9 9 9 9 9 8 8 7 7 7 6 7 7 7 7 7 7 6 7 7 7 8 8 8
4 4 4 4 3 2 2 2 3 5 6 4 4 5 3 2 3 5 5 5 4 4 4 4 4 5 7 7 7 7 7 7 7 6 6 6 7 7 7 7 7 7 7 7 7 6 7 7 7
4 5 4 3 4 2 2 3 4 5 5 4 4 6 5 4 5 6 6 5 4 4 4 3 3 4 4 4 6 6 6 7 7 7 7 8 8 8 8 7 7 7 7 7 7 7 7 8 8
3 6 3 3 5 3 3 4 3 3 5 3 3 4 6 8 8 7 5 4 3 2 2 2 2 3 3 3 5 6 7 8 8 7 8 7 4 4 5 7 7 8 8 9 9 9 9 8 8
4 4 3 2 4 5 4 4 4 5 5 5 7 7 8 8 7 7 5 3 2 1 0 1 1 2 2 3 3 3 3 4 4 4 4 3 3 4 5 8 9 9 9 9 9 9 8 7 4
4 4 2 2 4 6 5 4 3 7 4 5 9 10 9 7 6 5 4 4 3 2 1 1 1 1 2 2 2 2 2 3 3 4 4 3 3 3 4 3 5 6 7 5 6 6 4 4 3
4 3 3 3 4 5 4 4 4 4 4 6 9 10 8 8 6 5 5 4 3 2 1 1 2 2 2 2 2 2 2 2 2 3 4 3 2 3 3 3 3 3 3 3 3 3 4 4 4
4 3 4 6 8 6 7 6 5 4 6 9 9 9 8 7 5 4 4 4 4 3 2 1 2 2 2 2 2 2 2 2 2 2 3 3 3 3 3 3 3 3 3 3 3 3 4 4 4
4 6 6 6 7 4 7 5 5 4 7 9 8 7 6 6 5 4 3 3 3 3 3 2 3 3 3 2 2 2 2 2 3 3 3 3 3 3 3 3 3 3 3 3 3 3 3 3 3
5 7 7 5 5 3 7 5 2 4 7 7 6 5 4 3 4 4 4 4 4 4 3 3 3 3 3 3 3 2 2 3 3 3 3 4 3 3 3 3 3 3 3 3 3 4 3 4 4
5 5 4 2 3 2 5 3 2 4 7 6 5 4 3 3 3 3 3 4 4 4 4 3 4 4 4 3 3 2 3 3 3 3 3 4 4 4 3 3 3 3 3 3 3 3 4 4 4
4 3 3 1 2 2 4 3 2 4 6 6 5 5 4 3 3 3 4 4 5 4 4 4 4 5 4 4 3 3 3 4 3 3 3 4 4 4 4 3 3 3 3 4 3 4 3 3 3
3 4 3 2 0 3 4 3 3 4 6 6 5 5 5 5 6 4 4 4 4 4 4 5 4 4 5 4 3 3 4 3 3 3 3 4 4 4 4 3 4 4 4 4 3 4 4 3 2
4 5 4 1 1 3 3 2 3 4 5 5 5 5 6 7 4 3 4 4 4 4 4 4 5 4 4 2 2 2 2 2 2 3 4 4 4 4 4 3 4 4 4 3 3 2 4 4 3
5 5 3 2 2 3 2 1 2 4 6 7 8 8 8 6 3 4 4 4 5 5 5 4 5 4 3 3 2 2 2 1 1 2 3 4 4 4 3 4 3 3 3 5 5 3 2 3 4
3 3 3 3 3 3 2 2 2 3 3 5 6 7 7 9 8 6 6 5 5 6 6 5 5 4 3 4 3 3 3 3 2 3 2 3 4 4 4 4 3 4 3 3 4 3 3 2 3
1 2 4 4 4 0 1 1 5 3 3 6 7 7 8 8 7 7 7 6 6 6 5 5 5 4 4 4 4 4 3 2 1 0 1 2 3 4 3 3 3 3 3 3 3 3 2 3 2
3 3 3 3 3 2 1 1 6 2 5 8 9 9 9 8 8 8 9 8 7 6 6 5 5 4 4 4 5 5 3 2 1 1 2 2 3 3 3 3 3 3 3 3 4 4 4 2 2
4 5 5 4 3 0 2 3 6 5 9 7 8 9 9 9 8 7 6 6 5 5 5 5 5 4 4 4 4 5 5 4 3 1 1 1 2 2 3 3 3 3 3 3 3 3 4 3 3
3 5 3 3 2 3 2 3 8 8 7 10 10 9 9 9 8 7 7 7 7 7 7 6 6 5 4 5 4 5 5 5 4 3 2 1 1 1 2 2 2 2 2 2 3 3 3 3 3
3 5 5 3 3 2 1 5 8 5 5 6 7 6 7 8 8 9 10 9 9 8 8 7 7 6 5 5 5 4 4 3 2 3 2 2 1 1 0 1 2 2 2 3 3 3 2 3 3
4 2 3 4 1 1 3 5 8 2 1 2 4 5 7 8 9 9 8 8 8 9 9 9 8 6 6 6 5 4 4 4 3 3 2 2 1 1 1 1 2 2 2 2 3 2 2 2 2
3 5 4 3 3 1 4 4 4 4 3 2 4 6 7 7 7 7 7 8 8 8 7 7 7 7 6 6 5 5 4 4 3 3 3 2 1 1 2 2 2 2 2 2 3 2 2 3 2
3 3 3 3 3 4 1 6 5 5 5 5 6 7 7 8 8 8 7 7 7 6 6 7 7 6 6 6 5 4 4 4 4 3 3 3 2 2 2 2 2 2 2 2 2 2 2 2 2
3 4 5 3 2 3 2 7 5 4 5 5 5 5 5 6 7 7 6 6 6 7 7 7 7 7 6 6 5 5 4 4 4 3 3 3 3 2 2 2 2 2 2 1 2 1 1 1 1
Wind_Direction
347 44 84 63 57 55 62 22 82 86 72 73 75 77 84 66 77 115 153 99 104 90 73 91 95 96 94 93 91 88 86 83 82 81 79 77 77 77 74 73 71 68 65 63 59 55 53 50 49
354 72 59 60 78 75 44 24 87 83 126 128 79 68 73 68 65 99 103 112 105 101 90 94 95 95 93 92 90 88 86 84 82 83 81 78 74 72 69 69 67 62 60 57 53 50 48 45 44
29 60 76 69 79 121 130 95 103 89 100 101 78 59 72 84 93 117 135 119 103 97 85 94 96 95 94 92 90 89 87 85 84 82 79 76 72 71 70 67 63 57 53 51 47 43 39 39 39
75 48 55 68 75 56 134 136 122 111 76 60 90 71 61 46 113 131 123 110 103 92 81 96 97 94 93 92 91 89 87 84 82 80 76 72 69 68 66 63 59 53 48 45 41 36 35 35 37
61 73 64 64 61 40 68 113 93 93 82 73 88 87 57 17 93 111 113 108 107 94 76 89 98 94 92 90 88 85 81 80 78 76 70 64 62 61 58 55 53 50 46 43 39 35 35 37 37
56 66 83 98 76 52 55 57 82 88 95 92 89 94 74 67 105 114 109 101 99 95 75 69 89 93 92 91 88 85 79 74 71 67 62 54 51 48 45 46 45 46 43 39 39 37 36 36 37
95 86 104 119 107 82 95 75 96 105 99 100 108 97 106 109 113 112 101 94 83 74 67 53 51 64 72 78 81 79 73 63 57 54 49 42 38 37 38 37 37 39 40 41 41 39 37 36 37
113 96 87 103 119 112 115 92 89 101 102 109 104 124 154 162 121 100 84 76 71 65 60 53 44 47 44 40 52 55 53 47 43 39 38 37 31 25 22 20 23 32 37 41 39 40 40 39 40
85 78 118 156 148 135 133 109 86 78 98 78 75 117 136 128 115 104 89 68 64 68 48 50 45 42 44 34 37 35 34 33 32 27 31 33 20 13 11 14 27 33 36 38 36 39 41 41 37
74 103 159 165 152 135 126 113 119 98 86 81 85 90 111 120 126 127 135 142 144 155 82 50 55 45 39 35 35 21 26 27 26 23 24 26 22 19 29 23 29 31 34 34 36 41 41 39 26
76 120 128 93 112 119 113 98 94 116 112 140 138 135 129 128 129 139 153 162 178 188 162 115 97 64 57 45 38 25 24 27 28 29 30 33 31 22 26 21 16 18 27 26 24 29 27 31 30
83 69 104 103 100 104 114 108 93 106 146 140 136 135 136 142 149 160 166 163 160 163 177 149 110 85 63 60 47 40 38 37 35 26 30 42 38 27 20 22 11 16 14 19 21 22 25 30 32
74 85 78 90 88 95 94 92 100 96 109 115 124 133 149 154 157 161 165 158 152 162 171 152 117 108 87 68 53 56 47 49 46 39 32 50 55 38 27 20 21 17 16 22 19 23 28 30 28
93 91 81 74 79 76 96 84 89 117 122 124 136 151 162 162 163 158 162 158 164 171 171 151 121 121 105 90 79 64 54 51 50 43 35 51 61 56 45 31 24 17 13 22 32 32 32 29 33
88 83 65 48 64 83 96 70 92 137 131 137 152 164 169 178 170 175 180 173 173 169 160 148 134 118 109 101 90 76 59 57 51 38 37 50 56 54 55 46 28 10 10 31 40 35 35 38 37
63 67 77 26 66 82 105 133 165 145 141 153 165 171 182 202 195 195 185 169 163 154 149 150 134 121 113 104 93 75 62 59 46 35 38 47 51 53 54 48 26 9 25 35 44 34 39 36 36
52 98 111 79 58 98 110 160 178 158 155 167 175 181 189 206 216 210 188 171 161 155 149 137 122 124 117 103 87 71 63 54 39 36 37 40 47 50 57 48 23 20 39 36 41 40 43 39 29
147 129 118 117 48 111 126 164 164 170 168 181 186 190 197 207 220 202 180 170 154 145 140 133 121 118 112 96 82 63 52 41 34 34 32 38 43 47 55 51 31 30 44 36 38 48 43 42 22
119 116 109 118 138 125 146 174 204 176 175 188 194 200 210 220 225 192 176 160 146 142 143 143 137 137 128 111 103 89 63 26 22 27 34 38 42 45 52 48 38 36 46 39 36 48 47 30 10
102 109 102 74 98 126 133 243 232 189 195 197 197 204 208 207 197 194 181 172 168 165 165 157 156 157 155 140 130 121 115 82 43 9 30 32 38 38 52 53 46 40 47 40 34 43 53 29 23
104 148 150 136 86 71 94 340 271 233 209 209 209 206 204 200 197 196 188 187 175 176 180 174 168 163 153 136 110 87 64 44 28 13 13 11 31 41 46 52 53 47 52 47 36 42 68 59 25
140 165 143 130 105 60 127 243 272 229 224 220 217 209 210 209 199 195 189 188 189 188 178 167 164 157 150 142 139 139 138 139 190 326 0 13 32 40 42 47 55 56 53 48 36 49 58 82 52
171 134 112 99 108 72 57 158 278 224 234 235 222 213 212 205 197 197 194 191 190 181 173 168 157 151 148 151 152 140 134 139 115 63 45 31 23 31 38 46 55 58 55 53 49 50 52 61 79
123 86 67 52 73 33 217 174 270 225 218 226 220 211 209 202 197 197 191 179 179 172 166 162 158 159 154 153 153 152 151 146 130 110 74 26 12 18 31 50 56 59 58 55 53 55 59 57 66
92 98 69 27 24 254 217 196 250 241 222 212 213 210 203 195 189 186 183 184 184 179 176 170 167 169 164 159 163 166 162 160 164 169 165 139 33 5 3 41 52 52 55 64 64 61 54 54 62
157 136 147 170 205 276 220 232 256 259 244 217 207 196 189 192 190 190 191 188 188 184 179 175 177 177 170 168 174 167 164 163 173 179 176 178 188 217 310 63 69 62 63 70 71 64 55 58 61
132 146 152 127 130 320 282 285 299 312 345 188 183 177 190 195 194 195 191 187 187 185 184 183 181 178 176 176 170 166 170 171 178 176 168 177 191 184 126 95 83 69 70 80 83 67 52 58 55
133 141 105 112 134 288 306 289 268 291 282 239 200 201 203 194 192 191 188 187 188 187 181 178 181 183 178 176 177 173 175 176 168 153 162 174 177 141 127 109 97 83 75 81 84 73 57 64 42
126 120 117 116 144 148 277 281 237 243 244 231 224 212 202 194 193 190 189 185 177 170 171 177 181 178 176 179 177 167 170 166 156 159 173 174 168 157 150 141 121 106 89 80 85 77 70 67 37
167 171 151 147 195 165 177 271 276 258 253 226 227 221 206 196 190 183 177 169 169 175 177 180 182 184 185 178 172 173 167 161 163 171 177 168 165 162 156 142 129 124 113 104 112 101 76 84 45